Regional Weather Roundup
Issued by NWS

Home | Current Version | Previous Version | Graphics & Text | Print | Product List | Glossary Off
Versions: 1 2 3 4 5 6 7 8 9 10 11 12 13 14 15 16 17 18 19 20 21 22 23 24 25 26 27 28 29 30 31 32 33 34 35 36 37 38 39 40 41 42 43 44 45 46 47 48 49 50

000
ASUS43 KDMX 271803
RWRIA

WEATHER ROUNDUP FOR IOWA
NATIONAL WEATHER SERVICE DES MOINES IA
100 PM CDT FRI MAY 27 2016

NOTE: "FAIR" INDICATES FEW OR NO CLOUDS BELOW 12,000 FEET WITH NO
SIGNIFICANT WEATHER AND/OR OBSTRUCTIONS TO VISIBILITY.

* - THESE STATIONS ARE NOT NWS STATIONS...THUS NOT UNDER NWS
QUALITY CONTROL.  THEY ALSO DO NOT REPORT WEATHER SUCH
AS PRECIPITATION OR FOG.

IAZ001>003-012>014-020>022-031>034-043>046-271900-
   NORTHWEST IOWA

CITY           SKY/WX    TMP DP  RH WIND       PRES   REMARKS
CARROLL *      CLOUDY    70  63  78 SE7       29.77R
CHEROKEE *     PTSUNNY   72  62  70 S5        29.76R
LE MARS *      MOSUNNY   72  61  68 VRB6      29.77R
ORANGE CITY *  PTSUNNY   70  61  73 CALM      29.76S
SHELDON *      PTSUNNY   70  57  64 S7        29.75R
SIOUX CITY     PTSUNNY   73  59  61 E3        29.76R
6HR MIN TEMP:  63; 6HR MAX TEMP:  74; 6HR PCP: TRACE;

SPENCER        PTSUNNY   70  58  65 SE7       29.76R
6HR MIN TEMP:  59; 6HR MAX TEMP:  71; 6HR PCP: TRACE;

STORM LAKE *     N/A     70  57  64 SE7G13    29.77S
$$

IAZ055>058-069>071-079>083-090>094-271900-
   SOUTHWEST IOWA

CITY           SKY/WX    TMP DP  RH WIND       PRES   REMARKS
ATLANTIC *     PTSUNNY   70  63  78 S10       29.78R
AUDUBON *        N/A     72  64  78 SE5       29.78R
CLARINDA *       N/A     72  64  78 MISG      29.78R
COUNCIL BLFS * PTSUNNY   70  63  78 VRB6      29.78S
CRESTON *      CLOUDY    70  63  78 SW9       29.78S
HARLAN  *      MOSUNNY   72  63  73 S8        29.81R
LAMONI         PTSUNNY   72  65  78 W8        29.75S
6HR MIN TEMP:  60; 6HR MAX TEMP:  73; 6HR PCP: TRACE;

RED OAK *      CLOUDY    70  63  78 CALM      29.77F
SHENANDOAH *   PTSUNNY   70  64  83 SW3       29.77S
$$

IAZ047>049-059>061-072>074-084-271900-
   CENTRAL IOWA

CITY           SKY/WX    TMP DP  RH WIND       PRES   REMARKS
AMES           CLOUDY    67  64  90 N3        29.76S FOG
6HR MIN TEMP:  62; 6HR MAX TEMP:  67; 6HR PCP:  0.43;

ANKENY *       PTSUNNY   68  66  94 SW5       29.75S
BOONE *        CLOUDY    68  63  83 E5        29.75S
CHARITON *     MOSUNNY   75  68  78 SW16      29.74S
DES MOINES     CLOUDY    69  64  84 CALM      29.75S
6HR MIN TEMP:  64; 6HR MAX TEMP:  69; 6HR PCP:  0.09;

GRINNELL*      CLOUDY    74  67  79 S13       29.75S
KNOXVILLE *    CLOUDY    75  66  73 S14G21    29.73S
MARSHALLTOWN   CLOUDY    69  67  93 S9        29.75R
6HR MIN TEMP:  62; 6HR MAX TEMP:  69; 6HR PCP:  0.12;

NEWTON *       CLOUDY    72  70  94 SW12G17   29.74S
PERRY *        CLOUDY    69  64  84 SE3       29.76S
$$

IAZ004>006-015-016-023>025-035-036-271900-
   NORTH CENTRAL IOWA

CITY           SKY/WX    TMP DP  RH WIND       PRES   REMARKS
ALGONA *       PTSUNNY   70  61  73 SE10G16   29.77S
CLARION *      MOSUNNY   66  64  94 E8        29.76F
ESTHERVILLE    CLOUDY    66  59  78 SE10      29.77S
6HR MIN TEMP:  60; 6HR MAX TEMP:  70;

FORT DODGE *   CLOUDY    68  61  77 SE6       29.77S
MASON CITY     RAIN      64  62  93 NE7       29.79F FOG
6HR MIN TEMP:  62; 6HR MAX TEMP:  65; 6HR PCP:  0.45;

FOREST CITY *  LGT RAIN  63  63 100 NE3       29.78F
WEBSTER CITY * CLOUDY    68  64  88 VRB5      29.74F
IOWA FALLS *   HVY RAIN  65  63  94 CALM      29.78S
$$

IAZ007>011-017>019-026>030-037>042-050>054-066-271900-
   NORTHEAST IOWA

CITY           SKY/WX    TMP DP  RH WIND       PRES   REMARKS
CEDAR RAPIDS   CLOUDY    77  69  76 SE12G22   29.75F
6HR MIN TEMP:  63; 6HR MAX TEMP:  78; 6HR PCP:  0.01;

CHARLES CITY * CLOUDY    68  66  94 SE8       29.77F
CLINTON *      CLOUDY    74  67  78 S17       29.82F
DECORAH *      CLOUDY    70  66  88 VRB6G13   29.78F
DUBUQUE        CLOUDY    71  65  81 S13       29.82F
6HR MIN TEMP:  65; 6HR MAX TEMP:  71;

MONTICELLO *   CLOUDY    73  66  78 S8        29.79F
OELWEIN *      CLOUDY    70  66  88 SE8       29.79F
WATERLOO       CLOUDY    70  64  81 SE9       29.75F
6HR MIN TEMP:  63; 6HR MAX TEMP:  70;

$$

IAZ064-065-067-068-078-271900-
   EAST CENTRAL IOWA

CITY           SKY/WX    TMP DP  RH WIND       PRES   REMARKS
DAVENPORT      CLOUDY    74  66  76 S14G22    29.81S
6HR MIN TEMP:  65; 6HR MAX TEMP:  75; 6HR PCP: TRACE;

IOWA CITY      MOSUNNY   76  67  73 SE12G20   29.77F
6HR MIN TEMP:  64; 6HR MAX TEMP:  78;

MT. PLEASANT * CLOUDY    75  70  83 S13       29.78S
MUSCATINE *    CLOUDY    75  66  73 S16       29.79S
QUAD CITIES    CLOUDY    76  66  71 S12       29.80F
6HR MIN TEMP:  66; 6HR MAX TEMP:  77; 6HR PCP: TRACE;

$$

IAZ062-063-075>077-085>089-095>099-271900-
   SOUTHEAST IOWA

CITY           SKY/WX    TMP DP  RH WIND       PRES   REMARKS
BURLINGTON     CLOUDY    72  68  87 S15       29.79R
6HR MIN TEMP:  65; 6HR MAX TEMP:  72;

FAIRFIELD *      N/A    N/A N/A N/A MISG        N/A
FORT MADISON * CLOUDY    73  68  83 S9        29.79S
KEOKUK *       CLOUDY    73  68  83 S9        29.78S
OSKALOOSA *    PTSUNNY   77  66  69 S16G24    29.74F
OTTUMWA        PTSUNNY   78  67  68 S18G29    29.73F HX  80
6HR MIN TEMP:  63; 6HR MAX TEMP:  78; 6HR PCP: TRACE;

WASHINGTON *   PTSUNNY   79  79 100 S14G21    29.77F HX  83
$$

ABBREVIATIONS USED IN REMARKS
   TC - TEMPERATURES IN CELSIUS
  WCI - WIND CHILL INDEX
   HX - HEAT INDEX
  VSB - VISIBILITY
$$





USA.gov is the U.S. government's official web portal to all federal, state and local government web resources and services.